www.pogodaiklimat.ru

Погода и климат >> Архив погоды >> Украина >> Конотоп


АРХИВ ПОГОДЫ в Конотопе

Время (UTC), дата Ветер
(напр.,м/с)
 
Видим.   Явления Облачность Т
(С)
Тd
(С)
f
(%)
Тe
(С)
Тes
(С)
Комфортность P
(гПа)
Po
(гПа)
Тmin
(С)
Tmax
(С)
R
(мм)
R24
(мм)
S
(см)
15 16.07 штиль 0 20 км 9/8 600 м
[Cb cap Ac trans]
+23.0 +13.0 53 +26 +27 жарко 1006.7 989.7
18 16.07 В 1 10 км зарница {гроза, ливн. осадки} 9/8 600 м
[Cb cap Ac trans Ci fib]
+18.3 +14.7 80 +20 +20 по сезону 1007.8 990.5 +24.4 0.7
21 16.07 штиль 0 н/о 3/3 600 м
[Sc]
+15.3 +13.1 87 +15 +15 прохладно 1007.9 990.4
00 17.07 штиль 0 4000 м дымка ясно +13.1 +12.2 94 +13 +13 прохладно 1007.5 989.9
03 17.07 штиль 0 4000 м дымка 1/0
[Ac trans]
+12.5 +11.5 94 +12 +13 холодно 1007.1 989.4
06 17.07 ЮВ 1 10 км 6/0
[Ac trans Cc]
+20.4 +15.0 71 +24 +31 комфорт 1006.1 988.9 +12.0
09 17.07 З 3 20 км 9/3 600 м
[Sc As trans Ci fib]
+21.1 +11.0 52 +23 +28 комфорт 1006.2 989.0
12 17.07 З 2 20 км в посл. час ливневой дождь 9/5 600 м
[Cb cap Ac As]
+19.1 +10.9 59 +21 +23 комфорт 1006.5 989.2
15 17.07 ЮЗ 3 20 км 5/3 600 м
[Cu hum Ac trans]
+21.4 +11.2 52 +23 +25 комфорт 1005.5 988.4
18 17.07 ЮЗ 1 10 км 6/5 600 м
[Cb cap Ac trans]
+18.7 +11.4 63 +20 +20 по сезону 1006.1 988.8 +22.7 0.0
21 17.07 ЮЗ 2 10 км 10/8 600 м
[Cb cap Ac As]
+15.9 +11.3 74 +16 +16 прохладно 1006.6 989.1
00 18.07 З 1 4000 м дымка {ливн. осадки} 8/4 600 м
[Cb cap Ac trans]
+13.9 +12.4 91 +14 +14 прохладно 1006.7 989.1
03 18.07 ЮЗ 1 4000 м дымка 10/8 600 м
[Cb cap Ac As]
+12.9 +12.0 94 +13 +13 холодно 1007.1 989.4
06 18.07 З 2 10 км 9/6 600 м
[Cb cap Ac trans]
+15.7 +12.2 80 +16 +17 холодно 1007.9 990.4 +12.8 0.1
09 18.07 З 3 10 км 9/8 600 м
[Cb cap Ac trans Ci fib]
+18.3 +11.2 63 +19 +21 прохладно 1008.0 990.7
12 18.07 З 4 10 км слаб. ливневой дождь 8/6 600 м
[Cb cap Ac trans Ci fib]
+20.6 +9.4 49 +22 +25 комфорт 1008.3 991.1
15 18.07 З 4 20 км {ливн. осадки} 6/3 600 м
[Cb cap Ac trans Ci ing]
+20.8 +9.2 47 +22 +24 комфорт 1009.1 991.9
18 18.07 ЮЗ 1 10 км {ливн. осадки} 3/1 600 м
[Sc Ac trans Ci fib]
+16.1 +12.7 80 +17 +17 холодно 1010.4 992.9 +22.5 2
21 18.07 ЮЗ 2 10 км 3/0
[Ac trans]
+14.7 +11.5 81 +14 +14 холодно 1011.1 993.5
00 19.07 ЮЗ 1 4000 м дымка 3/0
[Ci fib]
+12.7 +11.6 93 +13 +13 прохладно 1011.5 993.8
03 19.07 ЮЗ 2 4000 м дымка ясно +12.9 +11.6 92 +12 +13 холодно 1012.8 995.0
06 19.07 З 2 10 км 1/0
[Ci fib]
+17.9 +13.5 75 +18 +26 прохладно 1012.9 995.5 +12.3
09 19.07 З 2 20 км 8/8 600 м
[Cb cap]
+22.7 +12.3 52 +25 +29 комфорт 1013.0 995.8
12 19.07 З 3 20 км 8/6 600 м
[Cu med, cong Ci fib]
+24.3 +9.5 39 +25 +29 комфорт 1013.1 996.0
15 19.07 З 3 20 км 6/6 600 м
[Cu med, cong]
+25.4 +8.9 35 +26 +27 жарко 1013.1 996.1
18 19.07 штиль 0 20 км 3/1 1000 м
[Sc Ac trans Ci fib]
+21.2 +10.6 51 +23 +23 комфорт 1014.5 997.2 +25.8
21 19.07 штиль 0 10 км 3/1 1000 м
[Sc Ac trans]
+15.8 +12.1 79 +16 +16 прохладно 1015.7 998.1
00 20.07 штиль 0 10 км 8/3 1000 м
[Sc Ac trans Ci fib]
+14.4 +11.6 83 +14 +14 прохладно 1016.4 998.7
03 20.07 штиль 0 10 км ясно +14.4 +11.2 81 +14 +15 холодно 1017.1 999.4
06 20.07 ЮЗ 2 10 км ясно +20.9 +13.4 62 +24 +32 комфорт 1017.5 1000.2 +13.6
09 20.07 З 3 20 км 6/6 600 м
[Cu med, cong]
+26.3 +10.9 38 +27 +33 жарко 1017.5 1000.5
12 20.07 З 3 20 км 5/4 600 м
[Cu med, cong Ac trans]
+27.5 +10.3 34 +28 +34 жарко 1017.3 1000.3
15 20.07 З 2 20 км 5/3 600 м
[Cu med, cong Ac trans Ci fib]
+27.1 +9.9 34 +28 +30 жарко 1016.7 999.7
18 20.07 ЮЗ 1 20 км 8/0
[Ac trans Ci fib]
+22.6 +13.5 56 +26 +26 жарко 1017.3 1000.1 +27.9
21 20.07 ЮЗ 1 10 км 5/3 1000 м
[Sc Ac trans]
+18.6 +13.7 73 +20 +20 по сезону 1018.3 1000.8
00 21.07 штиль 0 10 км 8/6 600 м
[Sc Ac trans Ci fib]
+16.0 +12.9 82 +16 +16 по сезону 1018.5 1000.8
03 21.07 штиль 0 10 км 8/0
[Ac trans Ci fib]
+14.8 +12.2 84 +15 +15 прохладно 1018.8 1001.1
06 21.07 штиль 0 20 км 8/0
[Ac trans Cc]
+23.3 +13.7 55 +27 +34 душно 1018.6 1001.4 +14.5
09 21.07 С 2 20 км 4/3 600 м
[Cu hum Ci fib]
+25.9 +11.0 39 +27 +38 жарко 1018.3 1001.2
12 21.07 СВ 2 20 км 5/4 600 м
[Cu med, cong Ac trans]
+27.8 +10.0 33 +28 +35 жарко 1017.7 1000.7
15 21.07 штиль 0 20 км 3/3 600 м
[Cu med, cong Ci fib]
+28.6 +11.2 34 +29 +32 жарко 1016.8 999.9
18 21.07 штиль 0 20 км 1/1 1000 м
[Sc diur, vesp]
+23.8 +14.3 55 +26 +26 жарко 1017.2 1000.0 +29.3
21 21.07 штиль 0 10 км ясно +18.7 +14.7 78 +20 +20 тепло 1018.2 1000.7
00 22.07 штиль 0 10 км ясно +16.5 +13.8 84 +16 +16 по сезону 1018.2 1000.6
03 22.07 штиль 0 10 км ясно +15.6 +13.3 86 +15 +16 прохладно 1017.9 1000.2
06 22.07 Ю 1 20 км 3/0
[Ci fib]
+24.7 +14.4 53 +27 +36 жарко 1016.5 999.4 +15.1
09 22.07 Ю 3 20 км 8/3 600 м
[Cu med, cong Ac trans Cc]
+28.8 +12.7 37 +30 +36 жарко 1015.4 998.5
12 22.07 З 4 10 км в посл. час ливневой дождь 10/6 600 м
[Cb cap Ac As]
+24.3 +19.1 73 +29 +30 душно 1015.2 998.1
15 22.07 ЮЗ 1 10 км слаб. ливневой дождь 10/8 600 м
[Cb cap Ac As Cs]
+21.3 +17.6 79 +25 +26 комфорт 1014.6 997.4
18 22.07 З 1 10 км {ливн. осадки} 8/3 600 м
[Cb cap Ac trans Ci fib]
+21.0 +17.8 82 +26 +26 душно 1014.3 997.1 +30.7 1
21 22.07 З 1 4000 м дымка 8/8 1000 м
[Sc]
+18.3 +17.1 93 +20 +20 тепло 1014.2 996.8
00 23.07 штиль 0 4000 м дымка 9/0
[Ci fib]
+17.1 +16.1 94 +17 +17 по сезону 1014.1 996.6
03 23.07 ЮЗ 1 4000 м дымка 9/0
[Ac trans Ci fib]
+15.3 +14.4 94 +16 +16 прохладно 1013.6 996.0
06 23.07 З 1 10 км 9/0
[Ac trans Ci fib]
+18.3 +15.4 83 +20 +27 по сезону 1012.7 995.3 +15.2
09 23.07 З 3 10 км 9/5 600 м
[Cu med, cong Ac trans Cc]
+22.9 +15.0 61 +27 +31 душно 1012.2 995.1
12 23.07 З 2 20 км 9/5 600 м
[Cu med, cong Ci fib]
+24.5 +12.1 46 +26 +31 жарко 1011.4 994.4

 

Местоположение метеостанции Конотоп (Сумская область, Украина): широта 51.23 долгота 33.20 высота над уровнем моря 149 м.

В архиве по умолчанию представлена погода в Конотопе за последнюю неделю. Архивные данные за месяц целиком и за предыдущие месяцы, начиная с января 2011 года, Вы можете получить, выбрав интересующий диапазон дат из раскрывающегося списка и нажав кнопку "Ввод!".


*Определитесь, кто Вы:
робот инопланетянин человек

Внимание! Время в таблицах - всемирное. Для получения местного времени необходимо прибавить поправку, которая равна 2 ч.

Смотрите также архив погоды в соседних городах и на ближайших метеорологических станциях:

Погода в Ромнах (Сумская область, Украина) (54 км)
Погода в Глухове (Сумская область, Украина) (71 км)
Погода в Покошичах (Черниговская область, Украина) (89 км)
Погода в Прилуках (Черниговская область, Украина) (92 км)
Погода в Нежине (Черниговская область, Украина) (93 км)
Погода в Дружбе (Сумская область, Украина) (105 км)
Погода в Щорсе (Черниговская область, Украина) (106 км)
Погода в Рыльск (Курская область, Россия) (109 км)
Погода в Гадяче (Полтавская область, Украина) (110 км)
Погода в Сумах (Сумская область, Украина) (111 км)

Пояснения к столбцам:

Ветер - указаны скорость ветра в м/с - средняя за 10 мин, порывы в срок и между сроками (в фигурных скобках) и направление, откуда дует ветер: С - северный, СВ - северо-восточный, В - восточный, ЮВ - юго-восточный, Ю - южный, ЮЗ - юго-западный, З - западный, СЗ - северо-западный.
Видимость - горизонтальная дальность видимости в метрах или километрах. При видимости от 1 до 10 км при отсутствии осадков обычно наблюдается дымка, при ухудшении видимости до 1 км и менее - туман. В сухую погоду видимость может ухудшаться дымом, пылью или мглою.
Явления - указаны атмосферные явления, наблюдавшиеся в срок или в последний час перед сроком; фигурными скобками обозначены явления, наблюдавшиеся между сроками (за 1-3 часа до срока); квадратными скобками обозначены град или гололедные отложения с указанием их диаметра в мм.
Облачность - указаны через наклонную черту общая и нижняя облачность в баллах и высота нижней границы облаков в метрах; квадратными скобками обозначены формы облаков: Ci - перистые, Cs - перисто-слоистые, Cc - перисто-кучевые, Ac - высококучевые, As - высокослоистые, Sc - слоисто-кучевые, Ns - слоисто-дождевые, Cu - кучевые, Cb - кучево-дождевые. Подробнее классификацию облаков см. в Атласе облаков (PDF).
T - Температура воздуха - температура, измеренная на высоте 2 м над землей.
Td - Температура точки росы - температура, при понижении до которой содержащийся в воздухе водяной пар достигнет насыщения.
f - Относительная влажность воздуха - влажноcть воздуха, измеренная на высоте 2 м над землей.
Te - Эффективная температура - температура, которую ощущает одетый по сезону человек в тени. Характеристика душности погоды. При расчете учитывается влияние влажности воздуха и скорости ветра на теплоощущения человека.
Tes - Эффективная температура на солнце - температура, которую ощущает человек, с поправкой на солнечный нагрев. Характеристика знойности погоды. Зависит от высоты солнца над горизонтом, облачности и скорости ветра. Ночью, в пасмурную погоду, а также при ветре 12 м/с и более поправка равна нулю.
P - Атмосферное давление - приведенное к уровню моря атмосферное давление.
Po - Атмосферное давление - измеренное на уровне метеостанции атмосферное давление.
Tmin - Минимальная температура - минимум температуры воздуха на высоте 2 м над землей.
Tmax - Максимальная температура - максимум температуры воздуха на высоте 2 м над землей.
R - Количество осадков - Количество выпавших осадков за период времени, мм. При наведении курсора мыши на число - период времени, за который выпало указанное количество осадков.
R24 - Количество осадков - Количество выпавших осадков за 24 часа, мм.
S - Снежный покров - Высота снежного покрова, см. При наведении курсора мыши на число - состояние снежного покрова и степень покрытия местности в баллах.